TimeMST,TemperatureF,Dew PointF,Humidity,Sea Level PressureIn,VisibilityMPH,Wind Direction,Wind SpeedMPH,Gust SpeedMPH,PrecipitationIn,Events,Conditions,WindDirDegrees,DateUTC
12:53 AM,30.0,26.1,85,30.10,10.0,West,3.5,-,N/A,,Overcast,260,2013-02-07 07:53:00
1:53 AM,30.0,25.0,82,30.12,10.0,WNW,5.8,-,N/A,,Overcast,290,2013-02-07 08:53:00
2:53 AM,30.0,24.1,79,30.12,10.0,West,4.6,-,N/A,,Overcast,260,2013-02-07 09:53:00
3:53 AM,30.0,24.1,79,30.12,10.0,NNW,5.8,-,N/A,,Clear,330,2013-02-07 10:53:00
4:53 AM,26.1,21.9,84,30.14,10.0,WNW,10.4,-,N/A,,Clear,300,2013-02-07 11:53:00
5:53 AM,24.1,21.9,91,30.17,10.0,WNW,8.1,-,N/A,,Clear,300,2013-02-07 12:53:00
6:53 AM,23.0,21.0,92,30.19,10.0,West,3.5,-,N/A,,Clear,270,2013-02-07 13:53:00
7:53 AM,24.1,21.0,88,30.20,10.0,West,4.6,-,N/A,,Clear,270,2013-02-07 14:53:00
8:53 AM,28.0,23.0,81,30.21,10.0,Calm,Calm,-,N/A,,Clear,0,2013-02-07 15:53:00
9:53 AM,36.0,23.0,59,30.18,10.0,WNW,5.8,-,N/A,,Clear,290,2013-02-07 16:53:00
10:53 AM,42.1,21.0,43,30.17,10.0,West,5.8,-,N/A,,Clear,280,2013-02-07 17:53:00
11:53 AM,44.1,19.0,37,30.15,10.0,WSW,6.9,-,N/A,,Clear,250,2013-02-07 18:53:00
12:53 PM,46.9,19.0,33,30.11,10.0,SW,6.9,-,N/A,,Clear,220,2013-02-07 19:53:00
1:53 PM,48.9,16.0,27,30.07,10.0,SW,8.1,-,N/A,,Clear,230,2013-02-07 20:53:00
2:53 PM,50.0,10.9,21,30.06,10.0,South,5.8,-,N/A,,Clear,170,2013-02-07 21:53:00
3:53 PM,48.9,10.0,21,30.04,10.0,SE,8.1,-,N/A,,Clear,140,2013-02-07 22:53:00
4:53 PM,45.0,10.0,24,30.06,10.0,ESE,8.1,-,N/A,,Clear,120,2013-02-07 23:53:00
5:53 PM,39.0,9.0,29,30.08,10.0,ESE,8.1,-,N/A,,Clear,120,2013-02-08 00:53:00
6:53 PM,35.1,9.0,34,30.10,10.0,SE,8.1,-,N/A,,Clear,130,2013-02-08 01:53:00
7:53 PM,32.0,9.0,38,30.11,10.0,ESE,9.2,-,N/A,,Clear,110,2013-02-08 02:53:00
8:53 PM,32.0,12.0,44,30.09,10.0,ESE,8.1,-,N/A,,Clear,110,2013-02-08 03:53:00
10:53 PM,23.0,12.9,65,30.07,10.0,East,6.9,-,N/A,,Clear,80,2013-02-08 05:53:00
11:53 PM,25.0,15.1,66,30.04,10.0,East,8.1,-,N/A,,Clear,80,2013-02-08 06:53:00